Flag for U.S.A. Weather past 2 weeks in Oklahoma City, Oklahoma, U.S.A.

Now
63 °F

Passing clouds.


Feels Like: 63 °F
Forecast: 54 / 76 °F
Wind: 15 mph from East

Location: Will Rogers World Airport

Current Time: Apr 26, 2015 at 3:58:48 AM

Latest Report: Apr 26, 2015 at 2:52 AM


Visibility: 10 mi

Pressure: 29.63 "Hg

Humidity: 70%

Dew point: 53 °F

Location of Oklahoma CityLocation

Historic Weather in Oklahoma City — Graph

°F

Oklahoma City temperature yesterday

Maximum temperature yesterday: 83 °F (at 3:52 PM)
Minimum temperature yesterday: 52 °F (at 6:52 AM)
Average temperature yesterday: 69 °F

Past Weeks' High & Low Weather Summary

 TemperatureHumidityPressure
High83 °F (Apr 25, 3:52 PM)94% (Apr 24, 8:02 AM)30.21 "Hg (Apr 24, 8:02 AM)
Low42 °F (Apr 20, 6:52 AM)27% (Apr 11, 4:52 PM)29.51 "Hg (Apr 25, 2:52 AM)
Average62 °F68%29.89 "Hg
* Reported Apr 11 1:52 AM — Apr 26 1:52 AM, Oklahoma City, Weather by CustomWeather, © 2015

Note: Actual official high and low records may vary slightly from our data, if they occured in-between our weather recording intervals... More about our weather records

Advertising

Oklahoma City weather history for previous 24 hours

 ConditionsComfort  
Time TempWeatherWind HumidityBarometerVisibility
1:52 AM
Sun, Apr 26
64 °FPassing clouds.15 mph68%29.64 "Hg10 mi
12:52 AM64 °FPassing clouds.12 mph65%29.64 "Hg10 mi
11:52 PM
Sat, Apr 25
66 °FPassing clouds.6 mph56%29.63 "Hg10 mi
10:52 PM64 °FPassing clouds.8 mph65%29.64 "Hg10 mi
9:52 PM67 °FClear.7 mph59%29.63 "Hg10 mi
8:52 PM70 °FPassing clouds.5 mph51%29.61 "Hg10 mi
7:52 PM75 °FPassing clouds.5 mph47%29.59 "Hg8 mi
6:52 PM80 °FPassing clouds.6 mph39%29.59 "Hg10 mi
5:52 PM82 °FPassing clouds.9 mph33%29.58 "Hg10 mi
4:52 PM83 °FPassing clouds.7 mph32%29.58 "Hg10 mi
3:52 PM83 °FPassing clouds.9 mph32%29.59 "Hg10 mi
2:52 PM82 °FSunny.13 mph33%29.60 "Hg10 mi
1:52 PM80 °FSunny.6 mph39%29.61 "Hg10 mi
12:52 PM79 °FSunny.8 mph41%29.62 "Hg10 mi
11:52 AM77 °FSunny.10 mph40%29.62 "Hg10 mi
10:52 AM74 °FSunny.10 mph46%29.62 "Hg10 mi
9:52 AM68 °FSunny.6 mph55%29.63 "Hg10 mi
8:52 AM64 °FSunny.6 mph58%29.62 "Hg10 mi
7:52 AM55 °FSunny.3 mph77%29.62 "Hg10 mi
6:52 AM52 °FClear.3 mph72%29.60 "Hg10 mi
5:52 AM54 °FClear.6 mph69%29.57 "Hg10 mi
4:52 AM56 °FClear.8 mph72%29.55 "Hg10 mi
3:52 AM61 °FClear.13 mph65%29.52 "Hg10 mi
Weather by CustomWeather, © 2015

See weather overviewHow to use our weather pages